Wind_Speed
21 21 21 24 23 25 27 27 26 24 21 24 23 18 21 16 13 12 10 8 9 9 10 9 8 13 12 11 7 6 8 11 11 14 16 18 20 21 23 25 27 28 29 30
22 21 23 27 26 25 27 27 24 24 23 24 25 23 22 21 12 16 20 10 10 11 13 12 13 12 14 13 12 11 11 11 12 13 16 20 23 24 26 27 29 30 31 32
24 25 27 28 28 28 28 26 26 25 25 26 27 28 25 22 16 19 22 14 9 10 15 18 18 17 15 17 19 14 12 13 15 15 19 23 29 30 29 29 30 31 33 33
25 29 30 32 32 31 29 25 28 28 27 30 31 31 27 26 21 20 19 14 13 14 18 19 23 23 23 24 22 19 18 18 17 16 20 25 28 32 30 29 30 31 32 35
25 30 32 32 30 31 30 29 33 31 33 35 35 36 35 33 26 24 22 20 19 18 19 20 22 26 29 29 29 27 26 25 20 18 19 28 30 33 32 29 30 31 34 34
27 30 30 30 32 33 32 31 34 35 37 41 37 40 40 34 31 24 24 23 21 20 20 19 21 28 35 35 35 34 34 27 24 21 24 29 35 33 31 30 31 33 34 36
25 26 24 28 32 33 34 32 35 37 39 39 37 39 38 34 30 30 31 31 31 27 25 26 27 30 33 38 42 37 32 32 28 22 28 36 37 33 32 32 32 33 35 38
27 28 23 24 26 29 30 29 30 31 33 32 35 34 30 26 28 31 33 35 37 36 37 31 29 35 34 35 35 46 42 39 28 37 38 39 33 33 32 34 33 34 35 37
27 27 25 26 27 27 28 28 26 29 29 32 31 26 22 21 20 22 25 28 28 29 31 33 32 32 31 34 35 39 31 36 33 39 36 36 37 35 34 32 34 36 37 39
24 25 28 29 31 32 30 29 30 29 31 31 31 26 20 18 21 22 23 26 28 29 31 30 29 31 35 37 32 31 31 37 32 32 33 34 33 34 34 34 35 36 37 37
21 22 24 31 33 34 35 33 31 32 34 35 34 29 18 18 19 20 23 24 23 23 25 28 29 27 25 21 25 27 31 31 29 28 30 33 33 33 34 35 35 37 39 38
23 24 20 28 34 37 37 36 34 35 33 33 34 31 20 19 22 22 23 22 21 21 22 21 21 20 19 21 25 28 28 30 30 30 32 34 35 36 37 37 38 40 41 40
25 28 26 23 28 32 35 35 35 36 35 35 36 33 25 22 21 20 20 21 21 23 26 25 24 22 23 23 27 29 31 31 33 34 35 35 38 39 41 37 38 41 42 41
34 34 32 30 28 29 33 32 32 35 38 36 35 32 26 20 20 25 28 27 24 25 25 26 27 28 29 31 31 33 36 36 36 37 38 38 40 42 37 36 37 39 42 41
41 41 40 38 34 34 34 35 35 38 37 39 35 34 28 25 30 31 30 31 31 31 30 30 31 33 34 35 37 38 43 42 41 41 40 41 40 40 34 38 40 41 39 42
44 44 44 45 43 42 40 39 40 40 40 40 38 39 30 31 33 34 35 36 36 37 38 38 39 38 38 40 40 42 46 46 45 44 41 42 45 44 37 38 40 38 42 42
48 48 47 48 44 46 51 45 42 41 42 41 42 38 37 37 37 39 39 39 40 41 42 41 40 41 41 43 42 42 47 50 48 45 43 47 44 43 41 41 38 42 41 42
53 51 50 49 48 55 52 49 46 44 44 44 44 44 43 42 42 43 44 43 43 43 43 43 42 42 42 41 41 41 45 50 48 47 47 47 42 48 41 39 38 40 42 41
55 54 55 54 54 54 56 54 49 48 47 44 48 46 45 47 47 48 46 47 47 46 46 44 43 44 42 42 42 43 47 49 50 51 48 45 49 43 40 37 39 41 40 43
57 56 56 58 58 58 55 52 50 53 56 46 43 45 46 48 49 49 45 46 45 45 47 48 47 45 43 42 42 42 44 47 50 48 47 45 45 45 35 37 40 39 40 42
58 58 58 57 59 59 55 53 52 53 52 51 48 47 47 48 48 49 47 48 50 51 51 49 46 44 46 47 45 41 40 39 42 44 47 46 45 43 35 38 38 38 40 42
60 58 59 57 59 59 55 53 54 54 52 51 51 50 49 49 49 48 48 48 48 48 49 48 45 45 46 47 46 44 43 44 44 39 44 50 47 41 39 37 35 37 39 44
62 59 58 58 57 56 56 57 57 54 53 52 50 50 49 49 50 50 47 45 45 44 44 46 44 43 43 45 46 48 46 44 43 45 47 45 40 41 37 33 33 35 40 39
61 57 58 57 55 55 55 55 56 56 55 54 52 51 51 51 51 50 48 45 43 43 42 44 44 43 42 44 46 46 44 40 43 42 40 38 37 41 35 29 31 37 38 36
62 59 56 56 55 55 55 55 56 56 55 54 54 54 53 53 53 52 51 49 47 46 45 46 42 39 39 41 39 38 32 35 34 35 44 47 50 40 29 26 33 35 35 33
61 60 57 57 56 56 52 52 53 55 57 58 57 56 55 54 53 52 52 52 52 51 48 43 39 38 41 40 37 36 36 36 39 36 37 45 37 33 26 30 34 33 29 27
Wind_Direction
234 234 239 240 234 242 245 249 255 264 270 276 280 271 267 259 257 242 226 232 277 285 255 243 264 259 256 248 262 303 323 310 300 302 307 312 318 316 311 308 308 308 310 310
232 234 234 243 241 238 242 248 252 256 264 264 267 273 261 279 277 244 252 224 263 277 252 255 240 253 267 267 268 281 310 306 306 308 315 324 325 319 315 312 308 308 309 311
232 232 235 241 245 242 241 249 253 253 261 265 275 277 277 282 286 261 266 236 251 270 267 274 271 246 256 279 283 277 289 300 290 297 313 326 325 322 317 311 309 309 310 312
233 238 235 239 242 248 252 253 258 263 263 266 271 265 267 273 282 271 255 260 264 288 275 268 274 280 274 264 279 281 284 275 285 298 308 319 320 322 315 310 308 308 309 307
233 237 241 243 251 252 251 251 257 258 259 264 265 260 263 273 277 268 262 265 273 277 286 274 268 273 275 273 274 271 269 264 272 283 305 313 317 320 314 310 309 309 309 308
240 238 241 242 244 248 252 248 250 256 259 261 263 266 270 276 277 268 267 270 271 274 283 274 278 281 276 279 269 261 249 246 264 292 302 312 319 318 315 310 310 312 312 312
248 249 244 239 239 244 248 250 250 254 258 265 269 268 275 276 273 271 271 276 275 269 272 281 284 281 279 278 273 258 275 315 338 298 311 312 315 317 310 307 306 306 308 309
242 242 235 239 240 244 246 247 250 255 257 263 262 270 280 276 271 271 274 275 279 280 283 279 278 283 288 284 283 284 303 306 315 314 317 316 320 319 307 308 309 306 305 306
239 242 240 238 239 242 247 253 257 261 265 267 270 278 284 286 283 278 273 273 276 277 271 273 278 276 279 273 276 287 309 307 311 311 315 316 318 318 316 311 307 305 307 308
252 246 239 240 237 242 244 249 252 257 261 265 270 273 276 272 273 271 269 271 273 275 277 273 268 268 271 278 280 281 288 301 314 318 315 316 318 314 311 309 307 306 306 305
256 252 248 243 244 240 244 248 248 251 256 263 269 269 276 265 270 276 275 279 274 275 273 271 274 274 279 284 291 289 290 297 307 311 315 314 316 315 310 307 305 308 309 309
265 267 252 249 245 247 249 250 248 251 257 260 263 268 276 269 274 275 279 285 285 284 280 274 273 277 280 287 285 285 285 288 295 306 307 310 310 309 307 302 301 304 309 308
254 262 261 246 253 254 258 262 263 260 260 263 268 273 272 269 274 278 285 289 286 284 284 282 277 277 272 275 275 284 282 285 289 297 301 306 306 307 305 300 299 303 307 307
265 259 258 256 247 249 253 256 258 260 263 268 266 272 274 276 283 285 283 279 276 278 276 283 285 283 283 282 282 287 288 287 291 292 299 303 304 307 298 297 296 305 311 306
263 266 267 265 261 258 258 257 256 255 259 261 268 266 271 279 279 280 280 281 283 286 288 287 289 292 290 291 291 292 291 294 295 294 299 302 300 306 279 298 301 309 311 307
259 262 264 264 264 265 260 257 257 257 259 261 264 267 273 271 270 275 279 284 286 289 289 290 291 291 292 291 292 289 288 289 292 294 297 298 298 281 286 300 309 304 305 308
259 260 259 261 264 264 262 259 263 265 264 266 265 270 268 269 269 269 272 277 279 280 281 283 285 285 287 289 288 284 285 289 292 294 292 294 297 284 296 304 306 304 305 309
259 259 260 262 261 259 262 265 263 263 264 266 270 273 273 276 276 275 278 280 279 282 284 284 287 287 286 284 284 281 281 285 288 288 288 292 288 282 299 302 298 299 303 309
257 258 260 259 261 262 260 263 268 268 263 263 265 270 274 274 274 275 280 281 283 284 284 286 286 285 283 281 281 280 281 285 285 284 286 285 278 287 296 294 295 299 303 306
256 256 256 260 260 261 264 263 263 266 266 267 268 267 269 272 274 277 280 281 282 282 284 284 284 285 286 282 281 281 282 281 280 283 284 282 283 285 286 289 294 299 301 306
253 255 257 258 260 261 261 263 263 262 271 269 268 267 267 268 270 273 275 277 279 281 281 280 280 281 283 283 282 281 279 276 281 285 283 282 277 279 282 288 294 299 303 307
252 252 255 257 259 261 265 267 267 266 264 265 267 268 269 269 270 272 275 277 276 275 277 279 281 282 284 286 285 283 280 282 283 282 286 277 271 278 280 285 293 300 305 308
254 256 256 255 257 258 261 264 265 266 268 268 267 268 270 271 274 275 274 270 269 270 272 275 277 280 282 282 281 280 280 288 279 277 282 259 267 277 274 284 293 300 304 304
254 255 255 255 254 256 259 262 264 264 265 267 270 273 275 275 274 274 273 271 271 272 270 271 273 275 277 277 279 279 280 280 285 269 256 264 271 268 272 285 296 299 299 301
251 253 253 255 256 254 253 257 261 265 267 268 270 272 273 274 275 277 279 281 280 277 273 273 273 273 273 275 274 275 276 289 291 258 282 249 261 269 279 291 294 295 295 294
252 255 255 254 255 256 257 257 259 261 263 264 266 267 268 268 271 274 277 278 279 278 276 273 271 272 276 274 272 274 282 290 286 287 272 248 277 277 281 289 291 289 288 298
Height
5887 5889 5891 5893 5895 5898 5900 5902 5904 5907 5908 5908 5910 5913 5911 5914 5915 5915 5915 5916 5916 5914 5913 5913 5912 5911 5909 5907 5905 5904 5903 5901 5899 5897 5896 5896 5894 5892 5889 5886 5883 5880 5878 5876
5885 5886 5886 5887 5890 5893 5896 5899 5901 5902 5904 5905 5906 5908 5909 5909 5912 5911 5911 5911 5911 5910 5909 5910 5910 5909 5908 5905 5903 5902 5900 5897 5896 5893 5893 5891 5890 5886 5883 5881 5878 5876 5873 5871
5880 5882 5882 5882 5885 5888 5891 5894 5896 5898 5898 5899 5901 5902 5904 5905 5906 5907 5907 5907 5907 5907 5905 5905 5905 5904 5903 5901 5899 5897 5895 5891 5886 5885 5885 5884 5882 5880 5877 5874 5871 5868 5867 5863
5875 5876 5877 5878 5880 5883 5886 5892 5891 5892 5893 5894 5896 5896 5899 5900 5902 5903 5903 5903 5903 5903 5902 5901 5899 5899 5897 5895 5891 5889 5886 5883 5880 5879 5877 5877 5876 5874 5870 5867 5865 5862 5860 5856
5872 5871 5873 5875 5879 5881 5883 5886 5886 5888 5889 5889 5890 5890 5893 5895 5898 5899 5899 5898 5898 5897 5897 5896 5894 5892 5888 5886 5882 5879 5873 5872 5873 5874 5874 5872 5868 5865 5862 5859 5857 5855 5852 5849
5865 5867 5869 5873 5873 5875 5878 5882 5882 5882 5883 5881 5885 5885 5886 5889 5891 5893 5893 5893 5893 5892 5891 5890 5889 5885 5880 5878 5875 5867 5865 5864 5869 5872 5866 5864 5862 5857 5855 5853 5850 5848 5845 5842
5861 5863 5866 5867 5869 5870 5872 5876 5877 5878 5877 5877 5879 5878 5880 5882 5884 5884 5885 5885 5885 5886 5885 5884 5882 5878 5875 5873 5862 5852 5849 5852 5857 5859 5856 5856 5852 5849 5849 5847 5844 5841 5838 5834
5855 5857 5860 5861 5863 5865 5867 5870 5871 5871 5871 5873 5872 5871 5874 5875 5875 5875 5875 5876 5875 5875 5875 5875 5875 5871 5869 5867 5867 5857 5853 5854 5848 5849 5848 5848 5844 5843 5843 5840 5837 5834 5831 5827
5849 5852 5854 5856 5856 5859 5861 5863 5867 5865 5866 5865 5866 5867 5869 5868 5868 5868 5868 5867 5867 5867 5866 5866 5867 5866 5863 5863 5858 5856 5847 5846 5845 5844 5841 5840 5837 5835 5834 5832 5830 5826 5823 5819
5845 5847 5847 5848 5850 5852 5855 5858 5859 5860 5859 5858 5860 5861 5864 5864 5862 5861 5861 5860 5861 5860 5859 5858 5858 5858 5857 5855 5855 5852 5848 5843 5839 5836 5837 5834 5831 5828 5827 5825 5822 5818 5815 5812
5840 5842 5844 5842 5844 5845 5847 5849 5852 5854 5853 5852 5853 5855 5858 5857 5857 5856 5854 5854 5853 5852 5851 5851 5851 5850 5849 5848 5844 5843 5840 5836 5835 5836 5832 5828 5825 5822 5820 5817 5814 5810 5807 5803
5833 5834 5839 5838 5838 5839 5840 5842 5844 5844 5846 5845 5845 5847 5851 5851 5850 5850 5849 5847 5846 5845 5844 5844 5844 5843 5842 5841 5838 5835 5833 5832 5831 5829 5826 5823 5819 5816 5812 5808 5805 5801 5798 5794
5828 5827 5830 5833 5834 5834 5834 5836 5837 5838 5838 5836 5837 5840 5844 5845 5844 5844 5842 5841 5840 5839 5838 5837 5837 5837 5836 5834 5832 5830 5828 5826 5824 5822 5820 5816 5811 5808 5804 5800 5797 5793 5789 5785
5816 5818 5821 5824 5826 5827 5826 5828 5828 5829 5827 5830 5829 5832 5835 5837 5836 5835 5832 5831 5832 5831 5831 5830 5830 5830 5829 5828 5826 5822 5819 5817 5815 5813 5811 5808 5803 5799 5795 5793 5789 5784 5779 5775
5807 5807 5810 5812 5816 5817 5818 5819 5819 5819 5821 5819 5823 5822 5828 5828 5826 5825 5825 5824 5823 5823 5823 5823 5821 5820 5818 5817 5815 5812 5808 5806 5805 5804 5801 5797 5793 5790 5786 5783 5779 5773 5769 5766
5797 5797 5798 5799 5803 5804 5806 5807 5807 5810 5811 5812 5815 5813 5820 5818 5816 5817 5816 5815 5814 5814 5812 5812 5811 5810 5808 5807 5806 5803 5800 5798 5795 5794 5791 5787 5783 5781 5776 5774 5769 5765 5762 5756
5784 5786 5787 5787 5791 5792 5789 5794 5798 5799 5799 5802 5802 5807 5806 5807 5807 5806 5807 5806 5805 5804 5803 5802 5802 5801 5799 5796 5795 5794 5789 5786 5784 5782 5780 5776 5774 5770 5766 5764 5758 5756 5750 5745
5770 5773 5775 5776 5777 5772 5780 5782 5785 5787 5789 5790 5791 5790 5791 5793 5794 5794 5794 5794 5794 5793 5791 5790 5790 5789 5788 5786 5784 5782 5779 5775 5773 5771 5769 5765 5763 5759 5756 5753 5749 5745 5740 5735
5758 5759 5760 5761 5762 5765 5764 5767 5773 5774 5777 5779 5778 5781 5782 5780 5780 5780 5781 5781 5781 5780 5778 5778 5778 5776 5775 5774 5773 5770 5768 5765 5763 5760 5757 5754 5751 5749 5746 5743 5738 5733 5729 5724
5744 5745 5747 5747 5747 5747 5753 5758 5761 5759 5758 5769 5770 5770 5769 5769 5769 5769 5769 5768 5767 5767 5765 5764 5764 5763 5762 5762 5761 5759 5757 5753 5750 5748 5745 5742 5741 5738 5734 5731 5728 5724 5720 5715
5727 5729 5731 5735 5733 5735 5739 5741 5745 5746 5752 5750 5755 5758 5758 5758 5758 5758 5758 5758 5756 5754 5752 5751 5751 5751 5750 5748 5747 5746 5744 5741 5739 5736 5733 5731 5729 5726 5723 5720 5717 5714 5710 5705
5710 5715 5718 5720 5719 5721 5726 5728 5729 5731 5732 5735 5737 5740 5742 5744 5745 5746 5746 5745 5744 5742 5740 5739 5739 5738 5736 5734 5733 5732 5731 5729 5727 5724 5722 5719 5717 5714 5712 5710 5708 5704 5700 5695
5691 5698 5703 5705 5707 5710 5710 5711 5713 5716 5718 5720 5722 5724 5726 5728 5729 5730 5732 5731 5730 5730 5730 5728 5727 5727 5725 5723 5722 5720 5719 5718 5716 5713 5710 5705 5705 5703 5702 5700 5697 5694 5690 5686
5676 5681 5683 5687 5692 5695 5698 5698 5699 5700 5702 5703 5706 5709 5711 5712 5712 5713 5714 5715 5716 5717 5717 5716 5716 5715 5714 5712 5710 5709 5709 5707 5704 5702 5698 5695 5695 5692 5690 5689 5687 5685 5681 5677
5659 5664 5669 5671 5674 5678 5681 5684 5686 5688 5690 5692 5693 5694 5694 5694 5695 5696 5697 5699 5700 5701 5701 5702 5703 5702 5701 5699 5698 5697 5697 5695 5692 5691 5692 5687 5683 5683 5680 5679 5678 5675 5672 5669
5645 5648 5650 5654 5658 5663 5670 5672 5673 5674 5675 5676 5676 5677 5677 5679 5681 5682 5683 5684 5685 5685 5687 5688 5689 5688 5687 5686 5685 5685 5685 5684 5682 5679 5677 5676 5674 5674 5673 5672 5669 5666 5662 5660